DLH2VN EDDC-EDDF

Flight info

Callsign DLH2VN
Flight time 0h 47m
Altitude 36000
Route ABKIS Z715 NURGO T170 GAPLA/N0412F240 T178 KERAX KERAX5D
Aircraft A319/M-SDE3FGHIRWY/LB1

Departure

Time 2026-04-14 16:30
Airport Dresden Airport (EDDC)

Arrival

Time 2026-04-14 17:17
Airport Frankfurt Main Airport (EDDF)
Time Latitude Longitude Altitude Speed Heading
2026-04-14 16:12 51.12599 13.76350 755 ft 0 kts 130°
2026-04-14 16:21 51.12602 13.76345 755 ft 3 kts 130°
2026-04-14 16:21 51.12617 13.76316 752 ft 4 kts 123°
2026-04-14 16:21 51.12623 13.76283 752 ft 4 kts 52°
2026-04-14 16:21 51.12602 13.76259 752 ft 4 kts 31°
2026-04-14 16:22 51.12591 13.76247 752 ft 0 kts 41°
2026-04-14 16:24 51.12594 13.76251 756 ft 2 kts 41°
2026-04-14 16:25 51.12621 13.76289 753 ft 9 kts 41°
2026-04-14 16:25 51.12682 13.76373 751 ft 13 kts 41°
2026-04-14 16:25 51.12744 13.76458 749 ft 11 kts 39°
2026-04-14 16:25 51.12808 13.76451 749 ft 10 kts 347°
2026-04-14 16:26 51.12882 13.76516 746 ft 15 kts 41°
2026-04-14 16:26 51.12969 13.76637 748 ft 18 kts 40°
2026-04-14 16:26 51.13076 13.76785 716 ft 23 kts 41°
2026-04-14 16:26 51.13205 13.76963 737 ft 26 kts 41°
2026-04-14 16:27 51.13341 13.77150 732 ft 26 kts 40°
2026-04-14 16:27 51.13476 13.77337 728 ft 25 kts 41°
2026-04-14 16:27 51.13603 13.77513 726 ft 24 kts 41°
2026-04-14 16:27 51.13730 13.77685 719 ft 18 kts 41°
2026-04-14 16:28 51.13798 13.77699 720 ft 8 kts 323°
2026-04-14 16:28 51.13823 13.77655 721 ft 3 kts 310°
2026-04-14 16:28 51.13828 13.77646 721 ft 2 kts 310°
2026-04-14 16:28 51.13868 13.77571 722 ft 15 kts 311°
2026-04-14 16:29 51.13893 13.77437 724 ft 12 kts 234°
2026-04-14 16:29 51.13834 13.77348 730 ft 20 kts 221°
2026-04-14 16:29 51.13512 13.76905 732 ft 99 kts 220°
2026-04-14 16:29 51.12835 13.75971 835 ft 148 kts 223°
2026-04-14 16:30 51.12119 13.75006 1748 ft 134 kts 224°
2026-04-14 16:30 51.11353 13.73949 2144 ft 163 kts 225°
2026-04-14 16:30 51.10444 13.72675 2639 ft 183 kts 225°
2026-04-14 16:30 51.09455 13.71274 3211 ft 198 kts 225°
2026-04-14 16:31 51.08386 13.69707 3674 ft 220 kts 226°
2026-04-14 16:31 51.07201 13.67955 4176 ft 246 kts 225°
2026-04-14 16:31 51.05909 13.66070 4962 ft 261 kts 225°
2026-04-14 16:31 51.04545 13.64113 5986 ft 266 kts 223°
2026-04-14 16:32 51.03161 13.62149 7051 ft 268 kts 223°
2026-04-14 16:32 51.01759 13.60169 8048 ft 271 kts 222°
2026-04-14 16:32 51.00335 13.58161 9047 ft 274 kts 223°
2026-04-14 16:32 50.98911 13.56141 10084 ft 277 kts 223°
2026-04-14 16:33 50.97443 13.54059 10737 ft 293 kts 223°
2026-04-14 16:33 50.95864 13.51814 11099 ft 317 kts 223°
2026-04-14 16:33 50.94163 13.49406 11564 ft 334 kts 223°
2026-04-14 16:33 50.92404 13.46923 12277 ft 342 kts 223°
2026-04-14 16:34 50.90621 13.44407 13109 ft 346 kts 223°
2026-04-14 16:34 50.88814 13.41855 13945 ft 350 kts 223°
2026-04-14 16:34 50.86982 13.39276 14642 ft 354 kts 223°
2026-04-14 16:34 50.85147 13.36642 15354 ft 359 kts 226°
2026-04-14 16:35 50.83729 13.33395 16046 ft 361 kts 243°
2026-04-14 16:35 50.82407 13.29987 16779 ft 365 kts 232°
2026-04-14 16:35 50.80642 13.27140 17479 ft 370 kts 225°
2026-04-14 16:35 50.78773 13.24311 18184 ft 374 kts 225°
2026-04-14 16:36 50.76853 13.21426 18849 ft 378 kts 224°
2026-04-14 16:36 50.74925 13.18547 19410 ft 383 kts 224°
2026-04-14 16:36 50.72975 13.15647 20036 ft 386 kts 224°
2026-04-14 16:36 50.71038 13.12762 20670 ft 389 kts 224°
2026-04-14 16:37 50.69064 13.09824 21308 ft 392 kts 224°
2026-04-14 16:37 50.67073 13.06867 21936 ft 394 kts 224°
2026-04-14 16:37 50.65072 13.03899 22540 ft 397 kts 224°
2026-04-14 16:37 50.63051 13.00904 23122 ft 400 kts 224°
2026-04-14 16:38 50.61046 12.97849 23695 ft 402 kts 228°
2026-04-14 16:38 50.59335 12.94373 24178 ft 403 kts 238°
2026-04-14 16:38 50.57980 12.90489 24635 ft 406 kts 243°
2026-04-14 16:38 50.56688 12.86526 25088 ft 408 kts 243°
2026-04-14 16:39 50.55380 12.82548 25542 ft 411 kts 243°
2026-04-14 16:39 50.54058 12.78548 25983 ft 414 kts 243°
2026-04-14 16:39 50.52724 12.74524 26426 ft 416 kts 243°
2026-04-14 16:39 50.51378 12.70474 26871 ft 419 kts 243°
2026-04-14 16:40 50.50026 12.66405 27309 ft 422 kts 243°
2026-04-14 16:40 50.48666 12.62311 27728 ft 425 kts 243°
2026-04-14 16:40 50.47294 12.58185 28143 ft 428 kts 243°
2026-04-14 16:40 50.45910 12.54025 28540 ft 431 kts 243°
2026-04-14 16:41 50.44516 12.49848 28931 ft 433 kts 243°
2026-04-14 16:41 50.43130 12.45702 29316 ft 436 kts 243°
2026-04-14 16:41 50.41718 12.41483 29693 ft 439 kts 243°
2026-04-14 16:41 50.40297 12.37237 30070 ft 441 kts 243°
2026-04-14 16:42 50.38866 12.32967 30406 ft 444 kts 243°
2026-04-14 16:42 50.37427 12.28686 30779 ft 444 kts 243°
2026-04-14 16:42 50.35983 12.24414 31224 ft 443 kts 243°
2026-04-14 16:42 50.34522 12.20173 31660 ft 442 kts 240°
2026-04-14 16:43 50.32819 12.16163 32086 ft 442 kts 236°
2026-04-14 16:43 50.31079 12.12198 32529 ft 442 kts 237°
2026-04-14 16:43 50.29593 12.08014 32953 ft 440 kts 247°
2026-04-14 16:43 50.28648 12.03477 33382 ft 439 kts 258°
2026-04-14 16:44 50.28275 11.98753 33811 ft 438 kts 269°
2026-04-14 16:44 50.28477 11.94011 34231 ft 437 kts 279°
2026-04-14 16:44 50.29241 11.89418 34584 ft 437 kts 289°
2026-04-14 16:45 50.31306 11.80463 35270 ft 437 kts 289°
2026-04-14 16:45 50.32333 11.75984 35602 ft 437 kts 289°
2026-04-14 16:45 50.33352 11.71511 35920 ft 437 kts 289°
2026-04-14 16:45 50.34368 11.67020 36144 ft 438 kts 289°
2026-04-14 16:46 50.36393 11.58034 36194 ft 437 kts 289°
2026-04-14 16:46 50.38413 11.49058 36195 ft 436 kts 289°
2026-04-14 16:47 50.40423 11.40092 36195 ft 436 kts 289°
2026-04-14 16:47 50.42432 11.31118 36198 ft 436 kts 289°
2026-04-14 16:48 50.44435 11.22123 36197 ft 436 kts 289°
2026-04-14 16:48 50.46422 11.13124 36196 ft 436 kts 289°
2026-04-14 16:49 50.48197 11.04027 36197 ft 437 kts 278°
2026-04-14 16:49 50.48372 10.99251 35712 ft 441 kts 272°
2026-04-14 16:49 50.48402 10.94431 35105 ft 439 kts 271°
2026-04-14 16:50 50.48387 10.89637 34509 ft 438 kts 270°
2026-04-14 16:50 50.48355 10.84858 33876 ft 438 kts 270°
2026-04-14 16:50 50.48321 10.80079 33193 ft 437 kts 270°
2026-04-14 16:50 50.48295 10.75308 32527 ft 437 kts 270°
2026-04-14 16:51 50.48278 10.70533 31873 ft 437 kts 270°
2026-04-14 16:51 50.48269 10.65751 31235 ft 439 kts 270°
2026-04-14 16:51 50.48263 10.61010 30617 ft 440 kts 269°
2026-04-14 16:51 50.48253 10.56214 29963 ft 440 kts 269°
2026-04-14 16:52 50.48241 10.51409 29245 ft 439 kts 269°
2026-04-14 16:52 50.48226 10.46631 28549 ft 435 kts 269°
2026-04-14 16:52 50.48205 10.41905 27868 ft 430 kts 269°
2026-04-14 16:52 50.48180 10.37229 27206 ft 426 kts 269°
2026-04-14 16:53 50.48153 10.32609 26560 ft 421 kts 268°
2026-04-14 16:53 50.48123 10.28030 25928 ft 417 kts 268°
2026-04-14 16:53 50.48092 10.23497 25311 ft 413 kts 269°
2026-04-14 16:53 50.48059 10.19000 24708 ft 411 kts 269°
2026-04-14 16:54 50.48026 10.14523 24114 ft 408 kts 269°
2026-04-14 16:54 50.47996 10.10086 23484 ft 405 kts 269°
2026-04-14 16:54 50.47967 10.05683 22798 ft 402 kts 269°
2026-04-14 16:54 50.47936 10.01314 22123 ft 399 kts 269°
2026-04-14 16:55 50.47901 9.96974 21466 ft 396 kts 269°
2026-04-14 16:55 50.47864 9.92670 20825 ft 393 kts 269°
2026-04-14 16:55 50.47825 9.88374 20194 ft 392 kts 269°
2026-04-14 16:55 50.47782 9.84111 19582 ft 391 kts 269°
2026-04-14 16:56 50.47738 9.79849 18975 ft 390 kts 269°
2026-04-14 16:56 50.47694 9.75592 18368 ft 389 kts 270°
2026-04-14 16:56 50.47650 9.71352 17694 ft 388 kts 270°
2026-04-14 16:56 50.47601 9.67117 17029 ft 387 kts 270°
2026-04-14 16:57 50.47549 9.62896 16376 ft 386 kts 269°
2026-04-14 16:57 50.47424 9.58706 15742 ft 384 kts 263°
2026-04-14 16:57 50.46814 9.54634 15120 ft 383 kts 250°
2026-04-14 16:57 50.45555 9.50966 14514 ft 382 kts 236°
2026-04-14 16:58 50.44024 9.47581 13909 ft 379 kts 235°
2026-04-14 16:58 50.42487 9.44237 13240 ft 376 kts 234°
2026-04-14 16:58 50.40953 9.40935 12582 ft 372 kts 234°
2026-04-14 16:58 50.39440 9.37691 11933 ft 367 kts 234°
2026-04-14 16:59 50.37943 9.34484 11352 ft 361 kts 234°
2026-04-14 16:59 50.36480 9.31351 10886 ft 351 kts 234°
2026-04-14 16:59 50.35060 9.28302 10450 ft 342 kts 234°
2026-04-14 16:59 50.33679 9.25336 10203 ft 333 kts 234°
2026-04-14 17:00 50.32328 9.22438 10183 ft 335 kts 234°
2026-04-14 17:00 50.30949 9.19488 10192 ft 336 kts 234°
2026-04-14 17:00 50.29570 9.16542 10188 ft 336 kts 233°
2026-04-14 17:00 50.28211 9.13572 10188 ft 336 kts 237°
2026-04-14 17:01 50.27046 9.10399 10193 ft 337 kts 243°
2026-04-14 17:01 50.26128 9.07032 10192 ft 337 kts 250°
2026-04-14 17:01 50.25341 9.03579 10188 ft 337 kts 250°
2026-04-14 17:01 50.24542 9.00132 10190 ft 338 kts 249°
2026-04-14 17:02 50.23734 8.96687 10191 ft 338 kts 249°
2026-04-14 17:02 50.22919 8.93250 10193 ft 338 kts 249°
2026-04-14 17:02 50.22103 8.89810 10194 ft 338 kts 249°
2026-04-14 17:02 50.21290 8.86364 10198 ft 337 kts 249°
2026-04-14 17:03 50.20483 8.82927 10205 ft 337 kts 249°
2026-04-14 17:03 50.19674 8.79488 10199 ft 337 kts 249°
2026-04-14 17:03 50.18865 8.76053 10193 ft 338 kts 249°
2026-04-14 17:03 50.18056 8.72619 9945 ft 336 kts 249°
2026-04-14 17:04 50.17246 8.69198 9674 ft 335 kts 249°
2026-04-14 17:04 50.16445 8.65832 9412 ft 333 kts 249°
2026-04-14 17:04 50.15655 8.62521 9148 ft 319 kts 249°
2026-04-14 17:04 50.14891 8.59334 8892 ft 308 kts 250°
2026-04-14 17:05 50.14157 8.56272 8627 ft 296 kts 250°
2026-04-14 17:05 50.13449 8.53326 8368 ft 284 kts 250°
2026-04-14 17:05 50.12778 8.50530 8217 ft 268 kts 251°
2026-04-14 17:05 50.12146 8.47897 8215 ft 251 kts 251°
2026-04-14 17:06 50.11545 8.45385 8216 ft 246 kts 250°
2026-04-14 17:06 50.10947 8.42881 8209 ft 248 kts 251°
2026-04-14 17:06 50.10345 8.40358 8209 ft 249 kts 250°
2026-04-14 17:06 50.09739 8.37842 8207 ft 248 kts 250°
2026-04-14 17:07 50.09128 8.35323 8212 ft 249 kts 250°
2026-04-14 17:07 50.08518 8.32814 7990 ft 247 kts 250°
2026-04-14 17:07 50.07910 8.30311 7576 ft 248 kts 251°
2026-04-14 17:07 50.07300 8.27800 7216 ft 248 kts 250°
2026-04-14 17:08 50.06692 8.25298 6851 ft 247 kts 251°
2026-04-14 17:08 50.06084 8.22794 6491 ft 247 kts 250°
2026-04-14 17:08 50.05477 8.20306 6134 ft 245 kts 250°
2026-04-14 17:08 50.04873 8.17841 5776 ft 243 kts 250°
2026-04-14 17:09 50.04271 8.15388 5425 ft 242 kts 250°
2026-04-14 17:09 50.03874 8.13768 5198 ft 241 kts 250°
2026-04-14 17:09 50.03282 8.11350 5002 ft 239 kts 250°
2026-04-14 17:09 50.02496 8.08135 4996 ft 240 kts 250°
2026-04-14 17:10 50.01848 8.05740 4992 ft 241 kts 239°
2026-04-14 17:10 50.01098 8.04427 4995 ft 242 kts 217°
2026-04-14 17:10 49.99560 8.03469 4997 ft 240 kts 184°
2026-04-14 17:10 49.97943 8.03799 4993 ft 238 kts 156°
2026-04-14 17:11 49.96636 8.05302 4999 ft 234 kts 128°
2026-04-14 17:11 49.95742 8.07400 4997 ft 233 kts 115°
2026-04-14 17:11 49.95045 8.09674 4995 ft 232 kts 105°
2026-04-14 17:11 49.94827 8.12079 4993 ft 218 kts 84°
2026-04-14 17:12 49.95141 8.14311 4999 ft 212 kts 68°
2026-04-14 17:12 49.95667 8.16456 4998 ft 214 kts 68°
2026-04-14 17:12 49.96196 8.18623 4798 ft 214 kts 68°
2026-04-14 17:12 49.96721 8.20781 4515 ft 213 kts 67°
2026-04-14 17:13 49.97244 8.22932 4209 ft 213 kts 67°
2026-04-14 17:13 49.97767 8.25086 3905 ft 214 kts 67°
2026-04-14 17:13 49.98304 8.27300 3595 ft 221 kts 67°
2026-04-14 17:13 49.98848 8.29544 3270 ft 222 kts 68°
2026-04-14 17:14 49.99384 8.31762 2948 ft 222 kts 68°
2026-04-14 17:14 49.99934 8.34038 2618 ft 222 kts 68°
2026-04-14 17:14 50.00469 8.36253 2301 ft 221 kts 68°
2026-04-14 17:14 50.01007 8.38482 1985 ft 221 kts 68°
2026-04-14 17:15 50.01543 8.40708 1662 ft 218 kts 69°
2026-04-14 17:15 50.02061 8.42858 1341 ft 206 kts 68°
2026-04-14 17:15 50.02547 8.44880 1058 ft 193 kts 68°
2026-04-14 17:15 50.02993 8.46743 905 ft 173 kts 68°
2026-04-14 17:16 50.03401 8.48458 584 ft 165 kts 69°
2026-04-14 17:16 50.03802 8.50109 334 ft 144 kts 68°
2026-04-14 17:16 50.04099 8.51346 330 ft 105 kts 70°
2026-04-14 17:16 50.04300 8.52190 339 ft 68 kts 69°
2026-04-14 17:17 50.04395 8.52705 352 ft 38 kts 89°
2026-04-14 17:17 50.04371 8.53018 353 ft 15 kts 99°
2026-04-14 17:17 50.04356 8.53170 360 ft 13 kts 98°
2026-04-14 17:17 50.04354 8.53296 365 ft 10 kts 79°
2026-04-14 17:18 50.04374 8.53398 374 ft 10 kts 71°
2026-04-14 17:18 50.04400 8.53552 375 ft 20 kts 80°
2026-04-14 17:18 50.04416 8.53805 375 ft 25 kts 84°
2026-04-14 17:18 50.04433 8.54073 376 ft 25 kts 84°
2026-04-14 17:19 50.04449 8.54311 374 ft 22 kts 84°
2026-04-14 17:19 50.04445 8.54529 367 ft 20 kts 105°
2026-04-14 17:19 50.04362 8.54723 360 ft 24 kts 139°
2026-04-14 17:19 50.04205 8.54835 354 ft 25 kts 160°
2026-04-14 17:20 50.04055 8.54920 354 ft 17 kts 159°
2026-04-14 17:20 50.04022 8.55037 353 ft 13 kts 70°
2026-04-14 17:20 50.04059 8.55177 357 ft 14 kts 71°
2026-04-14 17:20 50.04095 8.55334 353 ft 17 kts 70°
2026-04-14 17:21 50.04138 8.55511 352 ft 18 kts 69°
2026-04-14 17:21 50.04181 8.55698 354 ft 18 kts 69°
2026-04-14 17:21 50.04227 8.55885 360 ft 19 kts 69°
2026-04-14 17:21 50.04274 8.56050 354 ft 14 kts 47°
2026-04-14 17:22 50.04362 8.56043 361 ft 14 kts 336°
2026-04-14 17:22 50.04442 8.56075 356 ft 14 kts 59°
2026-04-14 17:22 50.04477 8.56220 361 ft 15 kts 69°
2026-04-14 17:22 50.04511 8.56360 356 ft 6 kts 69°
2026-04-14 17:23 50.04504 8.56395 356 ft 4 kts 144°
2026-04-14 17:23 50.04478 8.56413 356 ft 5 kts 154°
2026-04-14 17:23 50.04454 8.56430 362 ft 2 kts 154°
2026-04-14 17:23 50.04453 8.56431 362 ft 0 kts 154°